McComb, MS

12:31 AM CDT on May 29, 2017 (GMT -0500)
McComb-Pike County-Lewis

Weather History for KMCB - January, 2014

Change the Weather History Date:

Tuesday, January 7, 2014

  Actual Average Record
Temperature  
Mean Temperature 24 °F -  
Max Temperature 35 °F 58 °F 80 °F (1989)
Min Temperature 14 °F 37 °F 14 °F (2014)
Degree Days  
Heating Degree Days 40    
Moisture  
Dew Point 9 °F    
Average Humidity 56    
Maximum Humidity 84    
Minimum Humidity 28    
Precipitation  
Precipitation 0.00 in - - ()
Sea Level Pressure  
Sea Level Pressure 30.58 in    
Wind  
Wind Speed 1 mph (North)    
Max Wind Speed 6 mph    
Max Gust Speed -    
Visibility 10 miles    
Events      
Averages and records for this station are not official NWS values.
T = Trace of Precipitation, MM = Missing Value Source: NWS Daily Summary

Daily Weather History Graph

Daily Weather History Graph

Search for Another Location

Airport or City:

Trip Planner

Search our weather history database for the weather conditions in past years. The results will help you decide how hot, cold, wet, or windy it might be!

Date:

Astronomy

Jan. 07, 2014 Rise Set
Actual Time 7:01 AM CST 5:15 PM CST
Civil Twilight 6:34 AM CST 5:41 PM CST
Nautical Twilight 6:04 AM CST 6:11 PM CST
Astronomical Twilight 5:35 AM CST 6:41 PM CST
Moon 11:18 AM CST (1/7) No Moon Set
Length of Visible Light 11h 06m
Length of Day
10h 13m
Waxing Crescent, 46% of the Moon is Illuminated
Jan 7
Waxing Crescent
Jan 7
First Quarter
Jan 15
Full
Jan 23
Last Quarter
Jan 30
New

Hourly Weather History & Observations

Time (CST) Temp. Windchill Dew Point Humidity Pressure Visibility Wind Dir Wind Speed Gust Speed Precip Events Conditions
12:53 AM 18.0 °F - 10.9 °F 74% 30.60 in 10.0 mi Calm Calm - N/A   Clear
1:53 AM 17.1 °F - 10.9 °F 77% 30.60 in 10.0 mi Calm Calm - N/A   Clear
2:53 AM 16.0 °F - 10.9 °F 81% 30.61 in 10.0 mi Calm Calm - N/A   Clear
3:53 AM 16.0 °F - 12.0 °F 84% 30.61 in 10.0 mi Calm Calm - N/A   Clear
4:53 AM 16.0 °F 10.4 °F 9.0 °F 74% 30.62 in 10.0 mi NNW 3.5 mph - N/A   Clear
5:53 AM 16.0 °F 10.4 °F 8.1 °F 71% 30.63 in 10.0 mi North 3.5 mph - N/A   Clear
6:53 AM 14.0 °F - 9.0 °F 80% 30.64 in 10.0 mi Calm Calm - N/A   Clear
7:53 AM 19.0 °F 12.3 °F 7.0 °F 59% 30.64 in 10.0 mi Variable 4.6 mph - N/A   Clear
8:53 AM 21.9 °F 17.2 °F 3.9 °F 46% 30.67 in 10.0 mi Variable 3.5 mph - N/A   Clear
9:53 AM 23.0 °F 15.8 °F 1.9 °F 40% 30.68 in 10.0 mi NNW 5.8 mph - N/A   Clear
10:53 AM 25.0 °F - 1.9 °F 37% 30.65 in 10.0 mi Calm Calm - N/A   Clear
11:53 AM 28.0 °F 22.8 °F 3.0 °F 34% 30.61 in 10.0 mi Variable 4.6 mph - N/A   Clear
12:53 PM 30.9 °F 27.5 °F 3.0 °F 31% 30.58 in 10.0 mi Variable 3.5 mph - N/A   Clear
1:53 PM 33.1 °F 27.7 °F 3.9 °F 29% 30.57 in 10.0 mi North 5.8 mph - N/A   Clear
2:53 PM 34.0 °F 31.0 °F 3.9 °F 28% 30.55 in 10.0 mi NE 3.5 mph - N/A   Clear
3:53 PM 35.1 °F 32.2 °F 5.0 °F 28% 30.54 in 10.0 mi Variable 3.5 mph - N/A   Clear
4:53 PM 35.1 °F - 6.1 °F 30% 30.52 in 10.0 mi Calm Calm - N/A   Clear
5:53 PM 28.9 °F - 10.9 °F 47% 30.52 in 10.0 mi Calm Calm - N/A   Clear
6:53 PM 28.0 °F - 12.0 °F 51% 30.53 in 10.0 mi Calm Calm - N/A   Clear
7:53 PM 26.1 °F - 14.0 °F 60% 30.53 in 10.0 mi Calm Calm - N/A   Clear
8:53 PM 24.1 °F - 14.0 °F 65% 30.55 in 10.0 mi Calm Calm - N/A   Clear
9:53 PM 23.0 °F - 15.1 °F 72% 30.53 in 10.0 mi Calm Calm - N/A   Clear
10:53 PM 21.9 °F - 14.0 °F 72% 30.51 in 10.0 mi Calm Calm - N/A   Clear
11:53 PM 21.9 °F - 14.0 °F 72% 30.50 in 10.0 mi Calm Calm - N/A   Clear